Regional Weather Roundup
Issued by NWS

Home | Current Version | Previous Version | Graphics & Text | Print | Product List | Glossary Off
Versions: 1 2 3 4 5 6 7 8 9 10 11 12 13 14 15 16 17 18 19 20 21 22 23 24 25 26 27 28 29 30 31 32 33 34 35 36 37 38 39 40 41 42 43 44 45 46 47 48 49 50

000
ASUS45 KCYS 042310
RWRWY

WYOMING REGIONAL WEATHER ROUNDUP
NATIONAL WEATHER SERVICE CHEYENNE WY
500 PM MDT WED MAY 04 2016

NOTE:  "FAIR" INDICATES FEW OR NO CLOUDS BELOW 12,000 FEET
WITH NO SIGNIFICANT WEATHER AND/OR OBSTRUCTIONS TO VISIBILITY.

WYZ001-050000-
YELLOWSTONE NATIONAL PARK

CITY           SKY/WX    TMP DP  RH WIND       PRES   REMARKS
LK YELLOWSTONE   N/A     57  23  26 CALM      30.23S
W YELLOWSTONE  NOT AVBL

$$
WYZ002>013-054>058-071-098>099-050000-
NORTHERN WYOMING

CITY           SKY/WX    TMP DP  RH WIND       PRES   REMARKS
JACKSON        SUNNY     70  21  16 SW7       30.12F
CODY           FAIR      77  27  15 SW3G22    30.00F
GREYBULL       FAIR      82  20  10 E5        29.96F
WORLAND        FAIR      80  28  15 S10       29.98F
SHERIDAN       FAIR      79  35  20 E7        29.98F
BUFFALO        FAIR      77  35  21 NE6       30.04F
GILLETTE       FAIR      78  31  17 CALM      30.02F
HULETT         FAIR      77  36  22 CALM      30.04F
NEWCASTLE      FAIR      75  32  20 S8        30.07F

$$
WYZ014>020-022>026-101>103-050000-
CENTRAL WYOMING

CITY           SKY/WX    TMP DP  RH WIND       PRES   REMARKS
BIG PINEY      FAIR      71  17  12 SW13G21   30.16F
PINEDALE       FAIR      68  19  15 S10G30    30.17F
DUBOIS         FAIR      68  18  14 W13G21    30.15S
LANDER         FAIR      75  29  18 S9        30.05F
RIVERTON       FAIR      76  28  17 SE6       30.07F
CASPER         FAIR      74  32  21 W7        30.09F
DOUGLAS        FAIR      75  36  24 S8        30.09F

$$
WYZ021-027>030-104>119-050000-
SOUTHERN WYOMING

CITY           SKY/WX    TMP DP  RH WIND       PRES   REMARKS
EVANSTON       FAIR      68  22  17 SW9       30.14F
KEMMERER         N/A     70  18  13 S10       30.17F
FORT BRIDGER   CLEAR     70  21  16 NE3       30.17F
ROCK SPRINGS   FAIR      67  22  18 SW9       30.15F
DIXON          FAIR      72  21  14 SW13      30.20F
RAWLINS        FAIR      69  18  14 SW9       30.18F
SARATOGA       FAIR      70  21  16 W13G22    30.21F
LARAMIE        FAIR      67  26  21 N10       30.21F
CHEYENNE       FAIR      72  26  18 N6        30.17F
TORRINGTON     FAIR      76  35  22 E5        30.08F
PINE BLUFFS    FAIR      72  32  23 E5        30.14F

$$



USA.gov is the U.S. government's official web portal to all federal, state and local government web resources and services.